[Iaude] MPEC V81: 2023 VJ2 [a=0.80,e=0.33,i=12.3,H=25.7]

mpec at marsden.cfa.harvard.edu mpec at marsden.cfa.harvard.edu
Mon Nov 6 21:58:10 EST 2023


M.P.E.C. 2023-V81                              Issued 2023 November 7, 02:56 UT

     The Minor Planet Electronic Circulars contain information on unusual
         minor planets, routine data on comets and natural satellites,
         and occasional editorial announcements.  They are published
    on behalf of Division F of the International Astronomical Union by the
          Minor Planet Center, Smithsonian Astrophysical Observatory,
                          Cambridge, MA 02138, U.S.A.
			  
             Prepared using the Tamkin Foundation Computer Network

                              MPC at CFA.HARVARD.EDU
            URL https://www.minorplanetcenter.net/    ISSN 1523-6714

                                    2023 VJ2                                    


Observations:
     K23V02J*1C2023 11 05.29348001 10 05.315+10 33 00.36         21.79GVEV081G96
     K23V02J 1C2023 11 05.29865201 09 59.789+10 33 19.94         21.26GVEV081G96
     K23V02J 1C2023 11 05.30383301 09 54.227+10 33 38.45         20.52GVEV081G96
     K23V02J 1C2023 11 05.30899501 09 48.784+10 33 58.36         20.60GVEV081G96
     K23V02J KC2023 11 05.37711201 08 36.863+10 38 05.68         20.81GVEV081I52
     K23V02J KC2023 11 05.37995701 08 33.871+10 38 15.90         20.79GVEV081I52
     K23V02J KC2023 11 05.38280901 08 30.865+10 38 26.16         21.00GVEV081I52
     K23V02J KC2023 11 05.38564401 08 27.935+10 38 36.60         21.04GVEV081I52
     K23V02J KC2023 11 06.11958900 56 16.25 +11 22 44.9          20.4 GXEV081858
     K23V02J KC2023 11 06.12466800 56 11.594+11 23 07.48         20.61GVEV081I52
     K23V02J KC2023 11 06.12619500 56 09.964+11 23 13.06         20.73GVEV081I52
     K23V02J KC2023 11 06.12771500 56 08.437+11 23 18.56         20.71GVEV081I52
     K23V02J KC2023 11 06.12923600 56 06.846+11 23 24.04         20.53GVEV081I52
     K23V02J KC2023 11 06.12991700 56 05.44 +11 23 22.4          21.2 GXEV081858
     K23V02J KC2023 11 07.10975400 39 57.168+12 18 09.97         20.52GVEV081I52
     K23V02J KC2023 11 07.11120800 39 55.692+12 18 15.01         20.57GVEV081I52
     K23V02J KC2023 11 07.11266200 39 54.227+12 18 19.48         20.23GVEV081I52

Observer details:
858 Tebbutt Observatory, Edgewood.  Observer F. B. Zoltowski.  0.51-m f/8.1
    Schmidt-Cassegrain + CCD.
G96 Mt. Lemmon Survey.  Observer J. B. Fazekas.  Measurers E. C. Beshore, D.
    Fay, J. B. Fazekas, D. C. Fuls, A. R. Gibbs, A. D. Grauer, H. Groeller, J.
    K. Hogan, R. A. Kowalski, S. M. Larson, G. J. Leonard, D. Rankin, R. L.
    Seaman, F. C. Shelly, K. W. Wierzchos.  1.5-m reflector + 10K CCD.
I52 Steward Observatory, Mt. Lemmon Station.  Observers R. A. Kowalski, H.
    Groeller.  Measurers E. C. Beshore, D. Fay, J. B. Fazekas, D. C. Fuls, A.
    R. Gibbs, A. D. Grauer, H. Groeller, J. K. Hogan, R. A. Kowalski, S. M.
    Larson, G. J. Leonard, D. Rankin, R. L. Seaman, F. C. Shelly, K. W.
    Wierzchos.  1.0-m prime focus + CCD.

Orbital elements:
2023 VJ2                                                 Earth MOID = 0.0518 AU
Epoch 2023 Sept. 13.0 TT = JDT 2460200.5                MPC                     
M 133.08347              (2000.0)            P               Q                  
n   1.37324224     Peri.  166.73859     -0.88870377     +0.43755043             
a   0.8016251      Node    40.12558     -0.43765481     -0.72059819             
e   0.3326473      Incl.   12.26898     -0.13661577     -0.53785488             
P   0.72           H   25.75          G   0.15           U   8                  
Residuals in seconds of arc
231105 G96  0.4+  0.6-    231105 I52  0.3-  0.1+    231106 I52  0.3+  0.0
231105 G96  0.1+  0.1-    231105 I52  0.2+  0.4+    231106 858  0.6-  0.6+
231105 G96  0.6-  0.6-    231106 858  0.2-  0.0     231107 I52  0.0   0.0
231105 G96  0.0   0.4+    231106 I52  0.0   0.2-    231107 I52  0.0   0.2+
231105 I52  0.1+  0.2+    231106 I52  0.5-  0.1-    231107 I52  0.1+  0.1-
231105 I52  0.0   0.1+    231106 I52  0.3+  0.0

Ephemeris:
2023 VJ2                 a,e,i = 0.80, 0.33, 12                  q = 0.5350
Date    TT    R. A. (2000) Decl.     Delta      r    Elong.  Phase     V
2023 10 08    05 22 12.4 -07 17 10   0.1527  1.0647   111.4    60.9    24.0
...
2023 10 23    04 12 55.1 -02 29 43   0.08976 1.0668   141.4    35.6    22.1
...
2023 10 31    02 38 06.8 +04 34 22   0.06809 1.0600   169.6     9.8    20.7
...
2023 11 06    00 58 13.2 +11 16 37   0.06591 1.0513   154.4    24.1    21.1
2023 11 07    00 41 40.6 +12 13 04   0.06694 1.0495   149.6    28.5    21.2
2023 11 08    00 25 41.5 +13 04 11   0.06833 1.0477   145.0    32.9    21.4
...
2023 11 14    23 06 49.8 +16 23 21   0.08272 1.0348   121.2    54.9    22.4
...
2023 11 22    22 04 46.7 +17 59 44   0.1106  1.0128   100.0    73.9    23.6
...
2023 12 07    21 10 13.8 +18 41 22   0.1666  0.9569    75.4    94.9    25.2

A. U. Tomatic                (C) Copyright 2023 MPC           M.P.E.C. 2023-V81




More information about the Iaude mailing list